Wind_Speed
18 17 17 17 17 17 17 18 19 19 19 20 20 20 21 22 23 23 23 24 24 24 24 25 25 26 26 27 27 28 28 28 28 28 27 27 28 29 28 28 28 28 28
18 17 17 17 17 17 17 18 18 19 19 20 21 21 22 22 23 24 24 25 24 25 26 26 26 27 27 27 27 28 29 29 28 28 28 28 28 28 29 29 29 29 29
17 16 16 16 17 17 18 18 18 19 19 19 20 21 22 23 24 25 25 25 25 26 26 27 27 28 28 28 28 28 28 28 28 28 28 28 28 28 28 28 28 28 29
18 17 16 16 17 17 18 18 18 19 19 19 21 22 22 23 24 24 24 24 24 25 26 26 27 27 27 27 27 27 27 27 28 29 28 28 28 27 27 28 28 29 29
19 18 17 16 16 17 17 18 19 20 20 21 21 22 23 23 23 24 24 23 23 24 25 24 25 25 26 26 27 27 27 28 28 28 28 28 29 28 27 28 28 29 30
19 17 18 17 16 17 18 19 20 21 22 22 22 22 22 22 22 22 23 23 23 23 24 24 25 25 26 27 27 27 28 28 29 28 29 29 29 28 28 29 29 29 29
17 17 17 18 18 18 19 20 21 22 22 22 22 22 23 23 23 23 24 25 25 25 25 25 25 25 26 27 28 29 29 29 28 28 28 27 27 28 28 29 29 29 29
18 18 19 19 20 19 19 20 20 21 21 21 22 23 23 23 24 25 26 26 25 25 25 26 26 26 26 27 28 28 28 29 28 27 27 27 27 27 28 28 28 28 28
19 19 19 20 20 19 19 19 20 20 20 20 21 23 23 24 24 25 25 24 24 24 25 26 27 27 27 26 25 26 26 26 26 26 26 26 26 27 27 27 27 27 27
19 19 19 19 19 20 19 20 20 20 20 20 21 23 23 24 24 24 24 24 24 24 24 25 25 26 26 25 25 24 24 24 24 24 24 24 23 24 25 26 26 26 26
19 19 18 19 19 20 20 20 20 20 21 21 21 21 21 22 23 23 23 23 22 23 23 23 24 24 24 23 23 22 22 22 22 22 22 22 22 22 24 24 24 25 25
18 18 18 18 19 20 21 20 20 20 20 20 21 20 20 20 21 22 21 21 22 22 23 23 23 22 22 22 22 21 21 20 20 20 20 20 20 21 22 22 23 23 22
18 18 19 19 19 19 19 19 19 19 19 19 20 19 19 20 21 21 20 21 21 21 22 22 21 21 20 20 19 18 18 18 18 18 18 18 19 19 19 19 19 20 20
18 18 18 18 18 18 18 18 18 18 18 18 18 19 19 19 19 19 19 18 19 19 19 19 19 18 18 18 17 17 16 16 16 16 17 17 17 17 17 17 17 17 18
16 16 16 16 16 16 17 17 17 16 16 17 17 18 18 18 17 17 17 17 17 16 16 16 16 16 17 16 16 16 15 14 14 14 14 14 15 14 15 15 15 16 15
15 15 15 16 16 15 16 15 15 15 15 15 16 16 16 16 16 16 16 16 15 14 14 15 15 15 14 14 14 14 13 12 12 12 12 12 13 13 13 13 13 13 13
15 15 15 16 16 16 15 14 14 14 14 14 14 14 14 15 15 15 15 14 14 14 14 14 14 13 13 13 12 12 11 11 11 11 11 12 12 11 10 10 10 10 10
14 14 15 15 14 14 13 13 12 12 11 11 12 12 12 13 13 13 13 13 13 13 13 13 13 13 12 12 11 11 10 10 10 10 11 11 11 10 9 9 9 9 8
12 12 13 12 11 11 11 11 10 10 10 10 10 11 11 11 11 11 11 11 11 12 12 12 12 11 11 11 11 10 10 10 11 11 11 11 10 9 8 8 8 8 8
10 10 10 10 10 10 9 8 8 8 8 9 9 8 9 9 10 10 11 11 12 12 12 11 11 11 11 11 11 11 10 11 11 11 10 10 9 8 8 8 8 7 6
9 9 8 8 9 9 8 7 7 7 8 7 7 7 7 8 9 10 10 10 11 11 11 11 10 10 10 11 10 10 11 11 11 11 10 9 8 8 8 9 8 7 6
8 7 7 7 7 7 6 6 6 6 6 6 6 6 7 8 9 9 9 10 10 10 10 10 10 9 9 10 10 10 10 10 11 10 9 9 8 8 8 9 9 7 6
7 6 6 6 6 6 6 4 3 4 5 6 6 6 7 7 8 9 9 9 9 9 9 9 9 9 9 9 9 9 9 9 9 9 9 9 9 9 9 9 8 8 7
5 5 5 5 5 5 4 3 3 3 5 4 5 5 6 7 8 8 8 8 8 9 9 9 10 9 10 9 9 9 9 8 9 9 9 9 9 9 9 9 8 8 7
4 4 4 3 3 3 3 2 2 3 3 3 4 5 6 7 7 8 8 8 9 9 9 9 9 9 9 9 9 8 8 9 9 8 9 9 9 9 8 8 8 7 7
3 2 2 1 2 3 2 2 2 2 3 3 4 5 7 7 7 7 8 8 8 8 8 8 9 9 9 9 9 10 9 9 9 9 9 9 9 8 8 8 9 8 7
Wind_Direction
282 285 286 286 286 286 288 288 285 287 288 289 286 286 289 287 285 286 286 286 286 287 288 288 286 285 284 283 282 284 284 281 280 279 276 275 272 272 271 271 271 269 267
280 281 283 284 286 289 288 287 288 290 289 289 290 291 291 289 287 287 287 286 286 286 287 287 287 285 283 282 283 284 283 282 280 278 277 275 273 272 272 271 270 269 267
278 279 282 283 285 289 288 287 288 289 292 293 295 294 292 290 288 287 287 287 287 286 286 285 284 284 283 283 283 283 283 282 280 278 278 277 275 273 273 273 272 270 267
280 279 280 283 284 285 287 287 288 288 291 294 295 293 294 293 291 290 290 290 289 288 288 286 285 285 285 283 281 282 282 282 281 278 278 277 276 273 272 272 271 270 269
278 276 276 280 282 285 289 290 289 290 291 293 295 295 293 295 293 292 293 293 291 291 291 289 288 288 287 285 282 281 281 281 280 279 278 277 276 274 274 272 270 270 269
272 272 274 278 282 285 288 291 291 292 292 293 295 296 294 294 294 293 294 293 292 292 293 292 290 288 285 284 283 282 281 281 279 278 277 277 276 274 274 274 272 270 268
270 270 274 279 282 286 289 290 290 289 290 291 294 296 295 294 294 295 293 292 292 293 292 292 290 289 289 286 285 283 281 281 281 278 277 277 276 274 275 275 275 272 269
271 273 275 280 283 285 288 289 288 288 289 291 293 295 296 295 295 297 295 293 293 293 293 292 291 290 291 291 289 286 283 282 282 281 279 277 277 276 276 276 275 274 271
271 273 276 280 284 287 290 291 290 289 290 292 295 297 297 297 296 297 297 294 295 296 295 295 293 293 293 293 292 291 287 284 283 282 280 278 277 276 276 275 275 274 273
273 273 276 280 284 288 290 293 292 290 291 293 297 298 296 298 299 299 297 296 297 298 298 299 298 296 296 295 292 290 289 287 285 283 281 281 280 279 278 276 275 275 275
277 277 277 279 282 286 290 292 292 291 293 297 300 300 300 300 303 302 300 298 299 299 301 302 300 300 300 299 297 295 293 291 288 283 281 281 281 282 280 279 279 278 277
278 277 278 280 281 284 286 289 293 295 298 300 304 304 305 306 306 306 303 302 302 303 303 303 303 303 302 300 299 298 296 293 290 288 286 285 285 285 284 282 281 279 279
277 276 278 280 282 283 285 288 291 295 298 300 303 306 308 309 309 310 308 306 305 305 305 306 307 307 306 304 303 303 301 297 294 293 292 290 289 288 287 286 283 281 280
278 278 279 279 279 281 286 289 289 292 296 298 301 305 309 311 312 313 313 311 311 310 310 310 310 310 310 309 308 307 305 303 301 299 298 298 297 294 291 287 284 284 283
280 279 281 283 282 284 287 290 290 293 296 299 303 308 310 313 316 318 318 317 317 316 317 316 316 315 314 313 312 313 312 312 311 310 308 307 304 298 295 293 290 287 284
282 281 282 284 283 283 284 289 291 294 297 301 307 311 312 313 316 321 323 324 323 322 322 322 322 323 321 318 318 319 319 322 321 320 318 318 312 304 299 299 298 295 291
283 283 285 286 286 287 286 286 292 297 300 303 305 309 314 316 318 320 321 325 326 327 327 328 329 331 332 331 330 330 331 330 331 329 328 327 324 317 309 307 306 304 303
287 288 290 292 289 286 284 284 289 299 301 303 308 312 316 320 321 323 325 327 332 335 336 335 336 337 335 338 344 344 340 339 337 335 333 334 336 333 325 321 320 318 314
294 294 295 295 287 286 286 289 288 295 298 303 311 313 317 323 327 329 330 333 338 340 338 340 342 344 344 347 349 350 348 346 346 344 341 342 344 343 339 337 336 333 327
298 296 295 296 291 291 289 288 291 297 300 304 313 316 319 324 330 333 336 337 339 339 343 345 345 349 354 350 348 350 349 349 349 349 349 348 347 351 354 351 349 349 349
298 298 298 298 297 293 285 291 296 300 304 308 313 317 322 325 328 334 341 345 345 345 348 350 352 357 0 1 358 355 353 353 354 354 355 357 1 1 3 1 358 356 356
302 302 301 299 296 293 289 294 302 302 303 307 314 315 320 326 331 334 339 343 346 348 349 352 355 359 3 5 3 2 2 3 5 7 8 11 12 9 7 6 4 359 356
301 302 298 300 302 308 304 291 300 303 304 306 312 320 327 332 335 336 337 338 342 347 351 354 357 360 3 4 4 7 9 13 16 18 18 19 18 15 10 6 5 3 4
302 306 309 302 301 309 327 309 297 310 316 317 324 328 331 334 337 340 342 343 346 348 351 353 357 360 1 3 6 8 7 10 15 18 19 18 15 13 13 13 13 13 12
305 316 322 311 315 339 349 324 309 312 328 342 347 343 343 344 345 346 346 345 344 346 352 356 360 4 6 6 6 7 4 3 7 15 17 14 12 11 11 10 7 6 6
310 315 322 298 318 358 2 347 345 346 348 348 347 350 352 349 350 354 354 355 357 2 5 7 8 7 7 8 4 360 1 2 4 7 7 5 1 359 359 358 355 354 353
Height
5849 5848 5848 5847 5846 5846 5845 5844 5843 5841 5840 5839 5837 5836 5835 5833 5832 5830 5829 5827 5826 5824 5823 5822 5820 5819 5817 5816 5815 5813 5812 5811 5810 5810 5809 5808 5807 5807 5807 5807 5807 5807 5807
5844 5844 5843 5843 5842 5842 5841 5840 5839 5837 5835 5834 5833 5831 5829 5828 5826 5825 5823 5821 5820 5818 5816 5815 5814 5812 5810 5809 5807 5806 5805 5804 5803 5802 5801 5801 5800 5799 5799 5799 5799 5799 5799
5841 5840 5839 5838 5838 5837 5837 5835 5834 5832 5831 5829 5828 5826 5825 5822 5820 5819 5817 5815 5813 5812 5810 5808 5807 5805 5804 5802 5800 5799 5798 5796 5795 5794 5794 5793 5793 5792 5792 5791 5791 5791 5791
5837 5836 5835 5834 5834 5833 5832 5831 5829 5828 5826 5825 5823 5821 5819 5817 5815 5812 5811 5809 5807 5805 5803 5801 5800 5798 5796 5795 5793 5792 5790 5789 5788 5787 5786 5785 5785 5784 5784 5783 5783 5783 5783
5832 5831 5830 5830 5830 5829 5828 5826 5825 5823 5821 5820 5818 5816 5814 5812 5809 5807 5805 5803 5801 5798 5796 5794 5793 5791 5789 5787 5786 5784 5783 5782 5781 5779 5778 5777 5776 5776 5776 5776 5775 5775 5774
5827 5827 5826 5826 5825 5824 5823 5821 5819 5818 5816 5815 5813 5810 5808 5806 5803 5801 5799 5797 5795 5792 5790 5788 5786 5784 5782 5780 5778 5777 5776 5774 5773 5772 5771 5770 5769 5768 5767 5767 5767 5766 5766
5823 5822 5822 5821 5821 5820 5818 5816 5814 5813 5811 5809 5807 5805 5803 5800 5798 5795 5793 5791 5788 5786 5784 5782 5779 5777 5775 5773 5771 5769 5768 5767 5765 5764 5762 5762 5761 5760 5760 5759 5758 5758 5758
5818 5818 5817 5816 5816 5815 5813 5811 5809 5807 5806 5804 5802 5800 5797 5795 5792 5790 5787 5784 5782 5779 5777 5775 5772 5770 5768 5765 5763 5761 5760 5758 5757 5756 5755 5754 5754 5753 5752 5751 5750 5750 5750
5813 5813 5812 5812 5811 5810 5808 5806 5804 5802 5800 5799 5796 5794 5791 5789 5786 5784 5781 5778 5775 5773 5770 5768 5765 5763 5761 5758 5756 5754 5752 5751 5749 5748 5747 5747 5746 5745 5744 5743 5742 5742 5742
5807 5807 5807 5807 5806 5805 5803 5802 5800 5798 5795 5793 5791 5788 5786 5783 5780 5777 5775 5772 5770 5767 5764 5762 5759 5757 5754 5752 5749 5747 5746 5744 5743 5742 5741 5739 5738 5737 5736 5735 5734 5734 5734
5803 5802 5801 5801 5801 5800 5799 5797 5795 5793 5791 5788 5786 5783 5780 5778 5775 5772 5770 5767 5764 5761 5759 5756 5753 5751 5748 5746 5744 5741 5740 5738 5736 5735 5734 5733 5732 5730 5729 5728 5727 5726 5726
5798 5797 5797 5796 5796 5795 5794 5792 5790 5788 5786 5784 5781 5778 5775 5773 5770 5767 5765 5762 5759 5757 5754 5751 5748 5745 5743 5741 5738 5736 5734 5733 5731 5729 5728 5727 5725 5724 5723 5722 5721 5719 5718
5793 5792 5791 5791 5790 5789 5788 5787 5785 5783 5781 5779 5777 5774 5772 5769 5766 5763 5760 5757 5755 5752 5749 5746 5743 5740 5738 5736 5733 5731 5729 5728 5726 5724 5722 5721 5720 5719 5717 5716 5715 5713 5712
5787 5787 5786 5786 5785 5784 5783 5781 5780 5778 5777 5775 5773 5771 5768 5765 5762 5759 5756 5753 5750 5747 5744 5742 5739 5736 5734 5732 5730 5728 5725 5723 5721 5719 5718 5716 5715 5713 5712 5710 5709 5708 5707
5782 5782 5781 5780 5779 5779 5778 5777 5775 5774 5772 5771 5769 5766 5763 5761 5758 5756 5752 5749 5746 5744 5741 5738 5736 5733 5731 5729 5726 5724 5722 5720 5718 5716 5714 5712 5710 5709 5707 5706 5705 5704 5703
5778 5777 5776 5775 5774 5773 5773 5772 5771 5769 5768 5767 5765 5762 5760 5758 5755 5752 5750 5746 5744 5741 5738 5735 5733 5730 5728 5726 5723 5721 5719 5717 5715 5713 5711 5709 5707 5706 5704 5702 5701 5700 5699
5773 5772 5771 5770 5769 5769 5768 5768 5767 5765 5764 5763 5761 5759 5757 5755 5752 5750 5747 5744 5741 5739 5736 5733 5731 5728 5726 5724 5721 5719 5717 5715 5713 5711 5709 5707 5705 5703 5701 5700 5699 5697 5696
5769 5768 5767 5765 5764 5764 5764 5763 5763 5762 5761 5760 5758 5756 5754 5752 5750 5747 5745 5742 5740 5737 5735 5732 5730 5727 5725 5723 5720 5718 5716 5714 5712 5710 5708 5706 5704 5702 5700 5699 5697 5696 5694
5765 5764 5763 5761 5760 5760 5759 5759 5759 5758 5758 5757 5755 5754 5752 5750 5748 5746 5743 5741 5739 5736 5734 5731 5729 5727 5724 5722 5720 5718 5716 5713 5711 5709 5707 5705 5703 5701 5699 5698 5696 5695 5694
5761 5760 5759 5758 5757 5757 5756 5755 5755 5755 5755 5754 5753 5752 5750 5748 5746 5744 5742 5740 5737 5735 5733 5730 5728 5726 5724 5722 5720 5717 5715 5713 5711 5708 5706 5704 5702 5701 5699 5698 5696 5695 5693
5758 5757 5756 5755 5755 5754 5753 5752 5752 5752 5752 5751 5751 5750 5748 5747 5745 5743 5741 5739 5737 5734 5732 5730 5728 5726 5724 5721 5719 5717 5715 5713 5711 5708 5706 5704 5702 5701 5699 5698 5696 5695 5694
5755 5754 5754 5753 5752 5751 5750 5750 5750 5750 5750 5749 5748 5748 5747 5745 5744 5742 5740 5738 5736 5734 5732 5730 5728 5726 5724 5721 5719 5717 5715 5713 5711 5708 5707 5705 5703 5701 5700 5698 5697 5695 5694
5753 5752 5751 5751 5750 5749 5749 5748 5748 5748 5748 5747 5747 5746 5746 5744 5742 5741 5739 5737 5735 5733 5731 5729 5727 5725 5723 5721 5719 5717 5715 5713 5711 5709 5707 5705 5704 5702 5700 5699 5697 5696 5695
5750 5750 5749 5749 5749 5748 5747 5747 5747 5747 5747 5746 5746 5745 5744 5743 5741 5740 5738 5736 5734 5732 5731 5729 5727 5725 5723 5721 5719 5718 5716 5714 5712 5710 5708 5706 5704 5703 5701 5700 5698 5697 5696
5749 5748 5748 5748 5748 5747 5747 5746 5746 5746 5746 5745 5745 5744 5743 5742 5740 5739 5737 5736 5734 5732 5730 5728 5726 5725 5723 5721 5719 5718 5716 5715 5713 5711 5709 5707 5706 5704 5702 5701 5699 5698 5696
5747 5747 5747 5747 5747 5747 5746 5746 5746 5745 5745 5745 5744 5744 5742 5741 5740 5738 5737 5735 5733 5732 5730 5728 5726 5725 5723 5721 5720 5718 5716 5715 5713 5711 5710 5708 5706 5705 5703 5701 5699 5698 5696